Notices

What's New in latest Release from April 7th, 2021:

- Updated Glossary, including Speed of Maximum Gust, and Total Hourly Precipitation

- Updated national and regional climate services offices contacts and prices information

- Addition of station inventory lists for 1981-2010, 1971-2000, and 1961-1990 Normals.

If you haven't already, please take our survey and provide feedback about our website: https://eccc.sondage-survey.ca/f/LanguageSelection.aspx?s=442ca660-fcf1-47c0-95a9-59707d6fd709

Hourly Data Report for October 24, 2019

CORAL HARBOUR A
NUNAVUT
Current Station Operator: NAVCAN

64°11'36.000" N
83°21'34.000" W
62.20 m
2301002
71915
YZS

Download Data

Hourly Data (October 2019)
Hourly Data Report for October 24, 2019
TIME
LST
Temp Definition
°C
Dew Point Definition
°C
Rel Hum Definition
%
Precip. Amount Definition
mm

Wind Dir Definition
10's deg

Wind Spd Definition
km/h
Visibility Definition
km
Stn Press Definition
kPa
Hmdx Definition


Wind Chill Definition


Weather Definition


00:00 -0.2 -1.3 92   4 39 4.8 98.71   -8 Snow,Blowing Snow
01:00 0.0 -1.4 90   4 37 12.9 98.65   -7 Snow,Blowing Snow
02:00 -0.1 -1.2 92   4 40 3.2 98.61   -8 Snow,Blowing Snow
03:00 0.2 -1.4 89   4 42 19.3 98.53     Snow,Blowing Snow
04:00 0.2 -1.4 89   4 41 19.3 98.52     Snow,Blowing Snow
05:00 0.2 -1.4 89   4 45 19.3 98.49     Snow,Blowing Snow
06:00 0.2 -1.4 89   3 37 3.2 98.52     Snow,Blowing Snow
07:00 -0.1 -1.1 93   1 32 1.2 98.52   -7 Snow
08:00 -0.2 -1.2 93   36 44 9.7 98.52   -8 Snow,Blowing Snow
09:00 -1.0 -1.9 94   1 48 1.6 98.51   -9 Snow,Blowing Snow
10:00 -1.7 -2.6 94   36 48 0.8 98.51   -10 Moderate Snow,Blowing Snow
11:00 -1.9 -3.0 92   36 48 0.8 98.47   -11 Moderate Snow,Blowing Snow
12:00 -1.8 -3.3 90   36 48 1.6 98.51   -10 Snow,Blowing Snow
13:00 -2.1 -3.5 90   36 47 1.6 98.55   -11 Snow,Blowing Snow
14:00 -2.1 -3.7 89   36 45 4.8 98.58   -11 Snow,Blowing Snow
15:00 -2.4 -3.8 90   35 44 3.2 98.63   -11 Snow,Blowing Snow
16:00 -2.6 -4.2 89   35 48 3.2 98.70   -12 Snow,Blowing Snow
17:00 -2.9 -4.4 89   35 47 19.3 98.75   -12 Snow,Blowing Snow
18:00 -3.0 -4.4 90   35 45 16.1 98.78   -12 Snow,Blowing Snow
19:00 -3.3 -4.8 90   35 50 16.1 98.80   -13 Snow,Blowing Snow
20:00 -3.6 -5.1 89   35 46 24.1 98.84   -13 Snow,Blowing Snow
21:00 -3.7 -5.2 89   35 45 16.1 98.89   -13 Snow,Blowing Snow
22:00 -3.7 -5.5 88   35 44 24.1 98.94   -13 Snow,Blowing Snow
23:00 -3.5 -5.3 88   35 42 19.3 98.98   -12 Snow,Blowing Snow

Notes on Data Quality.

Legend

  • E = Estimated
  • M = Missing
  • NA = Not Available*
  • [empty] = Indicates an unobserved value
Date modified: